Location: Treviso
(45.6669°N, 12.2430°E)
Time: 17:09:01
(UTC+02:00)

NOAA 15 - Pass Details

Date: 04 May 2019
Orbit: 798 x 812 km, 98.7° (Epoch: 19 May)

Event Time Altitude Azimuth Distance (km) Brightness Sun altitude
Rises 21:01:03 0° 217° (SW) 3,293 7.9 -6.9°
Reaches altitude 10° 21:04:42 10° 244° (WSW) 2,370 7.5 -7.5°
Maximum altitude 21:07:10 13° 272° (W) 2,148 7.8 -7.8°
Drops below altitude 10° 21:09:38 10° 301° (WNW) 2,381 8.8 -8.2°
Sets 21:13:21 0° 327° (NNW) 3,320 9.2 -8.7°
